| time (UTC) | temp F | wind direction | speed knots | gust knots | rain 1hr in | rain 24hr in | rain mn in | humidity % | barometer mb |
| 20260509021815 | 58 | 264 | 0.0 | 0.9 | 0.00 | 0.00 | 0.00 | 22 | 1025.3 |
| 20260509020329 | 61 | 264 | 0.0 | 3.5 | 0.00 | 0.00 | 0.00 | 20 | 1025.1 |
| 20260509014823 | 62 | 264 | 0.9 | 3.5 | 0.00 | 0.00 | 0.00 | 18 | 1025.1 |
| 20260509013339 | 63 | 268 | 3.5 | 7.8 | 0.00 | 0.00 | 0.00 | 16 | 1025.0 |
| 20260509011826 | 65 | 248 | 2.6 | 10.4 | 0.00 | 0.00 | 0.00 | 16 | 1024.9 |
| 20260509010318 | 67 | 280 | 3.5 | 8.7 | 0.00 | 0.00 | 0.00 | 14 | 1025.1 |
| 20260509004812 | 68 | 170 | 4.3 | 11.3 | 0.00 | 0.00 | 0.00 | 14 | 1025.0 |
| 20260509003329 | 68 | 287 | 6.1 | 13.9 | 0.00 | 0.00 | 0.00 | 13 | 1025.2 |
| 20260509001822 | 69 | 253 | 6.1 | 13.0 | 0.00 | 0.00 | 0.00 | 13 | 1025.0 |
| 20260509000318 | 71 | 247 | 1.7 | 10.4 | 0.00 | 0.00 | 0.00 | 13 | 1024.9 |
| 20260508234851 | 72 | 270 | 3.5 | 10.4 | 0.00 | 0.00 | 0.00 | 12 | 1024.8 |
| 20260508233326 | 72 | 244 | 1.7 | 11.3 | 0.00 | 0.00 | 0.00 | 12 | 1024.8 |
| 20260508231819 | 72 | 249 | 4.3 | 10.4 | 0.00 | 0.00 | 0.00 | 12 | 1024.6 |
| 20260508230334 | 72 | 283 | 0.9 | 12.2 | 0.00 | 0.00 | 0.00 | 15 | 1024.8 |
| 20260508224827 | 71 | 272 | 6.1 | 11.3 | 0.00 | 0.00 | 0.00 | 12 | 1024.9 |
| 20260508223323 | 70 | 300 | 0.9 | 10.4 | 0.00 | 0.00 | 0.00 | 13 | 1024.9 |
| 20260508221836 | 68 | 247 | 5.2 | 15.6 | 0.00 | 0.00 | 0.00 | 13 | 1025.1 |
| 20260508220350 | 70 | 269 | 7.8 | 14.8 | 0.00 | 0.00 | 0.00 | 13 | 1025.1 |
| 20260508214849 | 70 | 280 | 2.6 | 8.7 | 0.00 | 0.00 | 0.00 | 14 | 1025.1 |
| 20260508213317 | 70 | 291 | 4.3 | 13.9 | 0.00 | 0.00 | 0.00 | 15 | 1025.3 |
| 20260508211835 | 71 | 294 | 2.6 | 13.0 | 0.00 | 0.00 | 0.00 | 14 | 1025.4 |
| 20260508210323 | 70 | 243 | 4.3 | 13.0 | 0.00 | 0.00 | 0.00 | 14 | 1025.4 |
| 20260508204845 | 68 | 253 | 3.5 | 9.6 | 0.00 | 0.00 | 0.00 | 15 | 1025.4 |
| 20260508203313 | 69 | 255 | 3.5 | 13.9 | 0.00 | 0.00 | 0.00 | 19 | 1025.7 |
| 20260508201826 | 70 | 253 | 3.5 | 8.7 | 0.00 | 0.00 | 0.00 | 15 | 1025.6 |
| 20260508200323 | 69 | 177 | 3.5 | 11.3 | 0.00 | 0.00 | 0.00 | 19 | 1026.1 |
| 20260508194815 | 68 | 233 | 4.3 | 10.4 | 0.00 | 0.00 | 0.00 | 17 | 1026.0 |
| 20260508193330 | 67 | 216 | 6.1 | 19.1 | 0.00 | 0.00 | 0.00 | 18 | 1025.9 |
| 20260508191845 | 67 | 226 | 6.1 | 12.2 | 0.00 | 0.00 | 0.00 | 19 | 1026.0 |
| 20260508190318 | 66 | 268 | 3.5 | 8.7 | 0.00 | 0.00 | 0.00 | 17 | 1026.1 |
| 20260508184859 | 66 | 260 | 5.2 | 16.5 | 0.00 | 0.00 | 0.00 | 17 | 1026.1 |
| 20260508183333 | 66 | 185 | 2.6 | 11.3 | 0.00 | 0.00 | 0.00 | 24 | 1026.0 |
| 20260508181819 | 65 | 260 | 3.5 | 13.9 | 0.00 | 0.00 | 0.00 | 18 | 1026.5 |
| 20260508180313 | 65 | 274 | 4.3 | 16.5 | 0.00 | 0.00 | 0.00 | 18 | 1026.6 |
| 20260508174835 | 64 | 203 | 4.3 | 18.2 | 0.00 | 0.00 | 0.00 | 23 | 1026.5 |
| 20260508173322 | 63 | 287 | 7.0 | 13.0 | 0.00 | 0.00 | 0.00 | 19 | 1026.9 |
| 20260508171835 | 63 | 122 | 6.1 | 18.2 | 0.00 | 0.00 | 0.00 | 20 | 1026.9 |
| 20260508170327 | 62 | 50 | 3.5 | 11.3 | 0.00 | 0.00 | 0.00 | 21 | 1026.6 |
| 20260508164848 | 61 | 274 | 5.2 | 10.4 | 0.00 | 0.00 | 0.00 | 20 | 1027.0 |
| 20260508163344 | 61 | 268 | 4.3 | 13.0 | 0.00 | 0.00 | 0.00 | 21 | 1026.6 |
| 20260508161816 | 60 | 168 | 6.1 | 12.2 | 0.00 | 0.00 | 0.00 | 23 | 1026.4 |
| 20260508160328 | 59 | 255 | 6.1 | 12.2 | 0.00 | 0.00 | 0.00 | 22 | 1026.5 |
| 20260508154823 | 59 | 197 | 4.3 | 11.3 | 0.00 | 0.00 | 0.00 | 25 | 1026.5 |
| 20260508153317 | 57 | 186 | 3.5 | 7.8 | 0.00 | 0.00 | 0.00 | 27 | 1026.3 |
| 20260508151829 | 56 | 206 | 4.3 | 8.7 | 0.00 | 0.00 | 0.00 | 27 | 1026.2 |
| 20260508150344 | 55 | 210 | 0.9 | 5.2 | 0.00 | 0.00 | 0.00 | 30 | 1026.1 |
| 20260508144837 | 54 | 210 | 1.7 | 4.3 | 0.00 | 0.00 | 0.00 | 28 | 1025.8 |
| 20260508143331 | 52 | 206 | 2.6 | 5.2 | 0.00 | 0.00 | 0.00 | 31 | 1026.1 |
| 20260508141824 | 49 | 233 | 0.9 | 6.1 | 0.00 | 0.00 | 0.00 | 37 | 1025.9 |
| 20260508140319 | 45 | 185 | 2.6 | 5.2 | 0.00 | 0.00 | 0.00 | 40 | 1025.8 |
| 20260508134812 | 40 | 143 | 0.0 | 0.0 | 0.00 | 0.00 | 0.00 | 56 | 1025.6 |
| 20260508133328 | 38 | 143 | 0.9 | 3.5 | 0.00 | 0.00 | 0.00 | 61 | 1025.3 |
| 20260508131814 | 36 | 143 | 0.0 | 0.0 | 0.00 | 0.00 | 0.00 | 63 | 1025.1 |
| 20260508130329 | 37 | 143 | 0.0 | 1.7 | 0.00 | 0.00 | 0.00 | 62 | 1025.0 |
| 20260508124822 | 37 | 144 | 0.0 | 0.0 | 0.00 | 0.00 | 0.00 | 58 | 1024.9 |
| 20260508123339 | 38 | 143 | 0.0 | 2.6 | 0.00 | 0.00 | 0.00 | 56 | 1024.8 |
| 20260508121838 | 39 | 143 | 0.0 | 2.6 | 0.00 | 0.00 | 0.00 | 54 | 1024.5 |
| 20260508120353 | 40 | 143 | 0.9 | 1.7 | 0.00 | 0.00 | 0.00 | 50 | 1024.4 |
| 20260508114826 | 42 | 143 | 0.9 | 2.6 | 0.00 | 0.00 | 0.00 | 46 | 1024.5 |
| 20260508113322 | 44 | 144 | 0.9 | 4.3 | 0.00 | 0.00 | 0.00 | 41 | 1024.6 |
| 20260508111819 | 43 | 50 | 0.9 | 7.8 | 0.00 | 0.00 | 0.00 | 42 | 1024.5 |
| 20260508110332 | 43 | 127 | 0.9 | 7.8 | 0.00 | 0.00 | 0.00 | 40 | 1024.4 |
| 20260508104825 | 41 | 163 | 0.0 | 5.2 | 0.00 | 0.00 | 0.00 | 42 | 1024.6 |
| 20260508103321 | 40 | 196 | 0.9 | 3.5 | 0.00 | 0.00 | 0.00 | 48 | 1024.5 |
| 20260508101835 | 40 | 196 | 0.9 | 2.6 | 0.00 | 0.00 | 0.00 | 46 | 1024.6 |
| 20260508100328 | 42 | 196 | 0.0 | 2.6 | 0.00 | 0.00 | 0.00 | 43 | 1024.5 |
| 20260508094820 | 40 | 202 | 3.5 | 7.0 | 0.00 | 0.00 | 0.00 | 44 | 1024.6 |
| 20260508093316 | 39 | 219 | 0.0 | 3.5 | 0.00 | 0.00 | 0.00 | 45 | 1024.6 |
| 20260508091829 | 40 | 218 | 0.9 | 1.7 | 0.00 | 0.00 | 0.00 | 45 | 1024.6 |
| 20260508090323 | 41 | 219 | 0.9 | 3.5 | 0.00 | 0.00 | 0.00 | 45 | 1024.8 |
| 20260508084817 | 43 | 219 | 0.9 | 4.3 | 0.00 | 0.00 | 0.00 | 42 | 1024.8 |
| 20260508083332 | 40 | 174 | 3.5 | 7.8 | 0.00 | 0.00 | 0.00 | 44 | 1024.9 |
| 20260508081845 | 39 | 170 | 0.9 | 3.5 | 0.00 | 0.00 | 0.00 | 46 | 1024.8 |
| 20260508080340 | 38 | 170 | 0.9 | 5.2 | 0.00 | 0.00 | 0.00 | 49 | 1025.0 |
| 20260508074830 | 38 | 171 | 0.9 | 4.3 | 0.00 | 0.00 | 0.00 | 51 | 1024.9 |
| 20260508073347 | 38 | 170 | 1.7 | 3.5 | 0.00 | 0.00 | 0.00 | 50 | 1025.2 |
| 20260508071840 | 38 | 171 | 0.0 | 3.5 | 0.00 | 0.00 | 0.00 | 49 | 1025.4 |
| 20260508070337 | 38 | 170 | 0.9 | 6.1 | 0.00 | 0.00 | 0.00 | 47 | 1025.6 |
| 20260508064851 | 39 | 265 | 0.9 | 3.5 | 0.00 | 0.00 | 0.00 | 49 | 1025.6 |
| 20260508063346 | 39 | 265 | 0.0 | 3.5 | 0.00 | 0.00 | 0.00 | 45 | 1025.6 |
| 20260508061818 | 39 | 265 | 0.0 | 2.6 | 0.00 | 0.00 | 0.00 | 45 | 1025.5 |
| 20260508060312 | 38 | 265 | 0.0 | 3.5 | 0.00 | 0.00 | 0.00 | 44 | 1025.6 |
| 20260508054825 | 36 | 265 | 0.0 | 5.2 | 0.00 | 0.00 | 0.00 | 47 | 1025.5 |
| 20260508053320 | 36 | 266 | 0.0 | 3.5 | 0.00 | 0.00 | 0.00 | 46 | 1025.5 |
| 20260508051833 | 36 | 266 | 0.0 | 2.6 | 0.00 | 0.00 | 0.00 | 44 | 1025.6 |
| 20260508050320 | 37 | 266 | 0.0 | 2.6 | 0.00 | 0.00 | 0.00 | 43 | 1025.8 |
| 20260508044842 | 38 | 266 | 1.7 | 2.6 | 0.00 | 0.00 | 0.00 | 42 | 1025.8 |
| 20260508043336 | 39 | 266 | 0.0 | 0.0 | 0.00 | 0.00 | 0.00 | 39 | 1025.8 |
| 20260508041850 | 40 | 266 | 0.0 | 0.0 | 0.00 | 0.00 | 0.00 | 36 | 1025.8 |
| 20260508040343 | 40 | 266 | 0.0 | 1.7 | 0.00 | 0.00 | 0.00 | 31 | 1025.8 |
| 20260508034837 | 41 | 266 | 0.0 | 1.7 | 0.00 | 0.00 | 0.00 | 34 | 1025.9 |
| 20260508033332 | 42 | 266 | 0.0 | 0.0 | 0.00 | 0.00 | 0.00 | 29 | 1025.6 |
| 20260508031844 | 44 | 266 | 0.0 | 1.7 | 0.00 | 0.00 | 0.00 | 26 | 1025.5 |
| 20260508030317 | 47 | 266 | 0.0 | 2.6 | 0.00 | 0.00 | 0.00 | 25 | 1025.4 |
| 20260508024811 | 50 | 266 | 0.0 | 0.0 | 0.00 | 0.00 | 0.00 | 19 | 1025.2 |
| 20260508023326 | 52 | 266 | 0.0 | 7.0 | 0.00 | 0.00 | 0.00 | 15 | 1025.3 |